Oxford, CT

10:50 PM EDT on May 22, 2017 (GMT -0400)
Waterbury-Oxford

Weather History for KOXC - March, 2014

Change the Weather History Date:

Saturday, March 1, 2014

  Actual Average Record
Temperature  
Mean Temperature 20 °F -  
Max Temperature 33 °F 38 °F 59 °F (2004)
Min Temperature 6 °F 23 °F 6 °F (2014)
Degree Days  
Heating Degree Days 46    
Moisture  
Dew Point 13 °F    
Average Humidity 54    
Maximum Humidity 64    
Minimum Humidity 38    
Precipitation  
Precipitation 0.00 in - - ()
Sea Level Pressure  
Sea Level Pressure 30.21 in    
Wind  
Wind Speed 5 mph (SW)    
Max Wind Speed 12 mph    
Max Gust Speed 20 mph    
Visibility 10 miles    
Events      
Averages and records for this station are not official NWS values.
T = Trace of Precipitation, MM = Missing Value Source: NWS Daily Summary

Daily Weather History Graph

Daily Weather History Graph

Search for Another Location

Airport or City:

Trip Planner

Search our weather history database for the weather conditions in past years. The results will help you decide how hot, cold, wet, or windy it might be!

Date:

Astronomy

Mar. 01, 2014 Rise Set
Actual Time 6:27 AM EST 5:43 PM EST
Civil Twilight 5:59 AM EST 6:10 PM EST
Nautical Twilight 5:27 AM EST 6:43 PM EST
Astronomical Twilight 4:55 AM EST 7:15 PM EST
Moon 6:18 AM EST (3/1) 6:28 PM EST (3/1)
Length of Visible Light 12h 11m
Length of Day
11h 15m
New Moon, 0% of the Moon is Illuminated
Mar 1
New Moon
Mar 8
First Quarter
Mar 16
Full
Mar 23
Last Quarter
Mar 30
New

Hourly Weather History & Observations

Time (EST) Temp. Windchill Dew Point Humidity Pressure Visibility Wind Dir Wind Speed Gust Speed Precip Events Conditions
5:52 AM 6.8 °F - -7.6 °F 52% 30.36 in 10.0 mi Calm Calm - N/A   Clear
9:52 AM 21.2 °F 11.7 °F 3.2 °F 46% 30.36 in 10.0 mi SSW 8.1 mph - N/A   Scattered Clouds
10:52 AM 24.8 °F 16.9 °F 6.8 °F 46% 30.34 in 10.0 mi SW 6.9 mph 18.4 mph N/A   Scattered Clouds
11:50 AM 26.6 °F 16.2 °F 8.6 °F 47% 30.31 in 10.0 mi SSW 11.5 mph 18.4 mph N/A   Clear
12:55 PM 30.2 °F 21.9 °F 12.2 °F 47% 30.28 in 10.0 mi SSW 9.2 mph 19.6 mph N/A   Clear
1:50 PM 30.2 °F 21.9 °F 12.2 °F 47% 30.25 in 10.0 mi SSW 9.2 mph 17.3 mph N/A   Clear
2:50 PM 33.8 °F 27.7 °F 12.2 °F 41% 30.22 in 10.0 mi SSW 6.9 mph 17.3 mph N/A   Clear
3:45 PM 33.8 °F 27.7 °F 10.4 °F 38% 30.21 in 10.0 mi SW 6.9 mph - N/A   Clear
4:45 PM 32.0 °F 24.2 °F 10.4 °F 41% 30.18 in 10.0 mi SSW 9.2 mph - N/A   Overcast
5:45 PM 30.2 °F 23.4 °F 12.2 °F 47% 30.19 in 10.0 mi SW 6.9 mph - N/A   Mostly Cloudy
6:45 PM 30.2 °F 24.3 °F 14.0 °F 51% 30.19 in 10.0 mi SW 5.8 mph - N/A   Overcast
7:45 PM 30.2 °F 26.7 °F 14.0 °F 51% 30.18 in 10.0 mi SSW 3.5 mph - N/A   Overcast
8:45 PM 30.2 °F 25.4 °F 15.8 °F 55% 30.17 in 10.0 mi SSW 4.6 mph - N/A   Overcast
9:15 PM 28.4 °F 24.6 °F 15.8 °F 59% 30.18 in 10.0 mi SW 3.5 mph - N/A   Overcast
9:35 PM 28.4 °F 24.6 °F 17.6 °F 64% 30.17 in 10.0 mi SW 3.5 mph - N/A   Overcast
9:55 PM 28.4 °F 23.3 °F 17.6 °F 64% 30.17 in 10.0 mi SW 4.6 mph - N/A   Overcast
10:15 PM 28.4 °F 23.3 °F 17.6 °F 64% 30.15 in 10.0 mi SW 4.6 mph - N/A   Overcast
10:35 PM 28.4 °F 24.6 °F 17.6 °F 64% 30.15 in 10.0 mi SW 3.5 mph - N/A   Overcast
10:55 PM 28.4 °F 24.6 °F 17.6 °F 64% 30.14 in 10.0 mi SSW 3.5 mph - N/A   Overcast
11:15 PM 28.4 °F - 17.6 °F 64% 30.14 in 10.0 mi Calm Calm - N/A   Overcast
11:35 PM 28.4 °F 24.6 °F 17.6 °F 64% 30.13 in 10.0 mi SW 3.5 mph - N/A   Overcast
11:55 PM 28.4 °F 24.6 °F 17.6 °F 64% 30.11 in 10.0 mi SW 3.5 mph - N/A   Overcast